Location: Helsinki
(60.1699°N, 24.9384°E)
Time: 23:01:20
(UTC+02:00)

A-11 Canister half - Pass Details

Date: 27 October 2020
Orbit: 1516 x 1684 km, 47.2° (Epoch: 26 November)

Event Time Altitude Azimuth Distance (km) Brightness Sun altitude
Rises 23:03:24 0° 245° (WSW) 4,916 11.6 -41.7°
Enters shadow 23:04:40 - 243° (WSW) 4,542 11.4 -41.7°
Reaches altitude 10° 23:06:51 10° 238° (WSW) 3,914 - -41.8°
Maximum altitude 23:15:45 38° 175° (S) 2,300 - -42.2°
Drops below altitude 10° 23:24:23 10° 112° (ESE) 3,803 - -42.4°
Sets 23:27:41 0° 105° (ESE) 4,764 - -42.5°
